datetime,doy,soilt.rh,rh,soilt.rs,rs,ra
2011-04-29T13:50,119.5764,13.8967,1.5651,13.195,2.235,0.669855715
2011-04-29T14:20,119.5972,13.4067,1.1296,12.56,1.8977,0.768086312
2011-04-29T14:50,119.6181,13.12,1.8535,12.3225,1.5628,-0.290728694
2011-04-29T15:20,119.6389,12.9167,1.6895,12.1675,2.0112,0.321739646
2011-04-29T15:50,119.6597,12.8233,1.3423,12.1375,1.5805,0.238128142
2011-04-29T16:20,119.6806,12.7367,1.8292,12.1,2.093,0.263824554
2011-04-29T16:50,119.7014,12.7233,1.6712,12.1125,1.5983,-0.072897168
2011-04-29T17:20,119.7222,12.6767,1.487,12.08,1.56,0.073022271
2011-04-29T17:50,119.7431,12.5833,1.6254,11.985,1.5119,-0.113538256
2011-04-29T18:20,119.7639,12.4733,1.3942,11.895,1.5208,0.126600146
2011-04-29T18:50,119.7847,12.3167,1.5981,11.755,1.751,0.152942021
2011-04-29T19:20,119.8056,12.1567,1.6918,11.61,2.2081,0.516360249
2011-04-29T19:50,119.8264,11.99,1.5851,11.44,1.7821,0.19709492
2011-04-29T20:20,119.8472,11.81,1.167,11.2775,1.1038,-0.063194289
2011-04-29T20:50,119.8681,11.6433,1.2959,11.1175,1.5798,0.283851824
2011-04-29T21:20,119.8889,11.4833,1.6876,10.96,1.9225,0.234862922
2011-04-29T21:50,119.9097,11.3233,1.3474,10.7925,1.7847,0.437205098
2011-04-29T22:20,119.9306,11.1733,0.8844,10.6625,1.5104,0.625992846
2011-04-29T22:50,119.9514,11.0433,1.037,10.5275,1.7769,0.739887493
2011-04-29T23:20,119.9722,10.9033,1.3299,10.395,1.571,0.241123056
2011-04-29T23:50,119.9931,10.7733,0.7397,10.2775,1.6697,0.930077317
2011-04-30T00:20,120.0139,10.66,1.1774,10.165,1.698,0.520575006
2011-04-30T00:50,120.0347,10.5433,1.1707,10.0475,1.7135,0.542744228
2011-04-30T01:20,120.0556,10.4333,1.256,9.945,1.7321,0.476078668
2011-04-30T01:50,120.0764,10.3233,0.6785,9.8375,1.5038,0.825290483
2011-04-30T02:20,120.0972,10.23,0.8679,9.7525,1.7123,0.844483765
2011-04-30T02:50,120.1181,10.13,1.2023,9.6425,1.2205,0.018190344
2011-04-30T03:20,120.1389,10.0467,1.449,9.56,1.4622,0.013215052
2011-04-30T03:50,120.1597,9.9333,1.2216,9.4675,1.6412,0.419540262
2011-04-30T04:20,120.1806,9.8433,0.7369,9.3825,1.1268,0.38985891
2011-04-30T04:50,120.2014,9.7633,0.6848,9.31,1.3635,0.678747479
2011-04-30T05:20,120.2222,9.6467,1.4345,9.2125,1.1065,-0.327928993
2011-04-30T05:50,120.2431,9.5033,1.0553,9.075,1.2103,0.155070475
2011-04-30T06:20,120.2639,9.31,0.6388,8.8625,1.0521,0.413226774
2011-04-30T06:50,120.2847,9.0467,0.531,8.635,1.045,0.514024812
2011-04-30T07:20,120.3056,8.84,1.0756,8.415,0.6268,-0.448844163
2011-04-30T07:50,120.3264,8.8233,0.2292,8.345,0.8916,0.662340888
2011-04-30T08:20,120.3472,8.8367,1.0018,8.39,1.1242,0.122387652
2011-04-30T08:50,120.3681,8.92,0.7799,8.4075,0.9813,0.201334706
2011-04-30T09:20,120.3889,8.9233,0.6173,8.4075,1.3328,0.715469581
2011-04-30T09:50,120.4097,8.96,0.857,8.4,1.6433,0.786285598
2011-04-30T10:20,120.4306,9.1167,0.4998,8.525,1.1552,0.655434648
2011-04-30T10:50,120.4514,9.1333,1.019,8.5075,1.3006,0.281655827
2011-04-30T11:20,120.4722,9.2767,1.258,8.66,1.6877,0.429715962
2011-04-30T11:50,120.4931,9.3767,0.7426,8.7425,0.8684,0.125715999
2011-04-30T12:20,120.5139,9.4133,0.9037,8.79,1.1347,0.230959235
2011-04-30T12:50,120.5347,9.5633,1.0807,8.7525,1.6631,0.582443358
2011-04-30T13:20,120.5556,9.5067,0.9223,8.68,1.5799,0.657621851
2011-04-30T13:50,120.5764,9.6533,1.0308,8.8225,1.7892,0.758400344
2011-04-30T14:20,120.5972,9.95,0.8827,9.0225,1.4887,0.6060368
2011-04-30T14:50,120.6181,10.3367,1.2051,9.38,2.0078,0.80272257
2011-04-30T15:20,120.6389,10.6167,1.3899,9.7125,1.4016,0.011735537
2011-04-30T15:50,120.6597,10.6967,0.8203,9.8625,0.6092,-0.211071345
2011-04-30T16:20,120.6806,10.7133,1.1035,9.975,1.9262,0.822657871
2011-04-30T16:50,120.7014,10.8267,1.2458,10.1,1.4716,0.225867841
2011-04-30T17:20,120.7222,10.95,1.1575,10.255,1.7855,0.628040061
2011-04-30T17:50,120.7431,10.9733,0.9161,10.32,1.065,0.148887785
2011-04-30T18:20,120.7639,10.9533,1.1246,10.295,1.5379,0.413315455
2011-04-30T18:50,120.7847,10.89,1.3787,10.25,1.5471,0.168415184
2011-04-30T19:20,120.8056,10.8,1.2628,10.19,1.5812,0.318398261
2011-04-30T19:50,120.8264,10.7,1.1026,10.095,1.734,0.631436482
2011-04-30T20:20,120.8472,10.58,1.5575,9.9775,1.5128,-0.044745261
2011-04-30T20:50,120.8681,10.4367,1.1213,9.8375,1.8618,0.740476871
2011-04-30T21:20,120.8889,10.2567,1.4027,9.6825,1.8606,0.457923512
2011-04-30T21:50,120.9097,10.0967,1.1764,9.5225,1.3829,0.206508359
2011-04-30T22:20,120.9306,9.9533,0.8083,9.4,1.6008,0.792487905
2011-04-30T22:50,120.9514,9.8033,1.1224,9.2525,1.2046,0.082187241
2011-04-30T23:20,120.9722,9.6633,1.0366,9.12,1.055,0.018421408
2011-04-30T23:50,120.9931,9.5267,0.951,9.005,2.225,1.274005906
2011-05-01T00:20,121.0139,9.4133,0.9619,8.88,1.2389,0.277039792
2011-05-01T00:50,121.0347,9.26,1.1789,8.7525,0.9622,-0.216662094
2011-05-01T01:20,121.0556,9.11,0.7621,8.6,1.0729,0.310781978
2011-05-01T01:50,121.0764,8.9633,0.9471,8.4725,1.2638,0.316711268
2011-05-01T02:20,121.0972,8.8233,0.724,8.33375,1.8285,1.104426293
2011-05-01T02:50,121.1181,8.7033,0.9985,8.213,1.5329,0.534374666
2011-05-01T03:20,121.1389,8.59,1.016,8.1105,1.1408,0.124808956
2011-05-01T03:50,121.1597,8.48,0.7829,8.015,1.5458,0.762942836
2011-05-01T04:20,121.1806,8.3867,0.8976,7.9195,1.1209,0.223238039
2011-05-01T04:50,121.2014,8.3033,0.8568,7.84575,1.1411,0.284340862
2011-05-01T05:20,121.2222,8.2053,0.6784,7.74875,1.3091,0.630642593
2011-05-01T05:50,121.2431,8.0547,0.6666,7.60475,1.4096,0.743012741
2011-05-01T06:20,121.2639,7.8467,0.5152,7.38625,1.3172,0.801965039
2011-05-01T06:50,121.2847,7.5583,0.4932,7.14825,0.773,0.279777662
2011-05-01T07:20,121.3056,7.29,0.5143,6.88525,1.4976,0.983290992
2011-05-01T07:50,121.3264,7.3483,0.9097,6.9355,1.1621,0.25236226
2011-05-01T08:20,121.3472,7.1373,1.2026,6.73175,1.5454,0.342724811
2011-05-01T08:50,121.3681,6.8713,0.6989,6.495,0.9139,0.21498003
2011-05-01T09:20,121.3889,6.7943,1.0137,6.444,1.2698,0.256043507
2011-05-01T09:50,121.4097,7.0243,0.7547,6.75525,1.3155,0.560733791
2011-05-01T10:20,121.4306,7.3843,0.9445,7.1375,1.3586,0.414170368
2011-05-01T10:50,121.4514,7.6507,1.1847,7.29875,1.5277,0.343068351
2011-05-01T11:20,121.4722,8.0193,1.611,7.61425,1.9959,0.384875086
2011-05-01T11:50,121.4931,8.6267,1.2052,8.22925,1.7473,0.542175346
2011-05-01T12:20,121.5139,9.08,1.3492,8.645,1.6807,0.331513476
2011-05-01T12:50,121.5347,9.4667,1.4017,8.9825,2.0029,0.601130667
2011-05-01T13:20,121.5556,9.84,1.7973,9.3925,2.0126,0.2153313
2011-05-01T13:50,121.5764,10.1667,1.3137,9.5575,1.9847,0.67107652
2011-05-01T14:20,121.5972,10.6933,1.3945,10.025,1.3067,-0.087789773
2011-05-01T14:50,121.6181,11.2033,1.507,10.5475,1.5346,0.0275693
2011-05-01T15:20,121.6389,11.53,1.5015,10.915,1.6092,0.10764665
2011-05-01T15:50,121.6597,11.6467,1.2525,11.0925,1.7684,0.5158684
2011-05-01T16:20,121.6806,11.6667,1.2134,11.1725,1.7351,0.521651208
2011-05-01T16:50,121.7014,11.7233,1.4284,11.2325,1.7438,0.315392244
2011-05-01T17:20,121.7222,11.86,1.1616,11.3875,1.763,0.601364215
2011-05-01T17:50,121.7431,11.96,1.0285,11.4825,1.3132,0.284669394
2011-05-01T18:20,121.7639,11.9633,0.9658,11.465,1.5672,0.601395784
2011-05-01T18:50,121.7847,11.8867,1.5119,11.39,1.2934,-0.218544265
2011-05-01T19:20,121.8056,11.7367,1.1364,11.2075,1.1661,0.029770671
2011-05-01T19:50,121.8264,11.4933,1.0484,10.975,1.5394,0.490957589
2011-05-01T20:20,121.8472,11.2233,1.0138,10.7175,1.1295,0.115627095
2011-05-01T20:50,121.8681,10.9567,0.8912,10.445,0.9955,0.104350507
2011-05-01T21:20,121.8889,10.7067,1.0664,10.215,1.4056,0.339260966
2011-05-01T21:50,121.9097,10.48,1.2022,9.985,1.6852,0.483056241
2011-05-01T22:20,121.9306,10.2767,1.2313,9.7925,0.8634,-0.367951549
2011-05-01T22:50,121.9514,10.0567,1.3136,9.58,1.0492,-0.264427411
2011-05-01T23:20,121.9722,9.8567,1.9422,9.385,1.6901,-0.252092041
2011-05-01T23:50,121.9931,9.6867,0.3817,9.2125,1.245,0.863275413
2011-05-02T00:20,122.0139,9.5033,1.1285,9.0375,0.7975,-0.330982088
2011-05-02T00:50,122.0347,9.3567,0.9669,8.88,2.0772,1.110273662
2011-05-02T01:20,122.0556,9.2033,1.591,8.725,1.6774,0.086398258
2011-05-02T01:50,122.0764,9.05,0.9441,8.585,1.0335,0.089458731
2011-05-02T02:20,122.0972,8.9067,1.1531,8.43325,1.3685,0.215317649
2011-05-02T02:50,122.1181,8.7433,1.2445,8.2835,1.188,-0.056559975
2011-05-02T03:20,122.1389,8.6033,0.5712,8.13925,1.0176,0.446437633
2011-05-02T03:50,122.1597,8.46,0.9803,8.01625,1.6429,0.662540335
2011-05-02T04:20,122.1806,8.3433,1.0926,7.89,1.4881,0.39558242
2011-05-02T04:50,122.2014,8.205,0.7184,7.74925,1.1866,0.468226748
2011-05-02T05:20,122.2222,8.063,0.8372,7.609,1.0034,0.166164496
2011-05-02T05:50,122.2431,7.896,0.8595,7.471,1.247,0.387485008
2011-05-02T06:20,122.2639,7.701,0.9068,7.24425,0.8819,-0.024962567
2011-05-02T06:50,122.2847,7.45,1.1091,7.04525,0.6204,-0.488764696
2011-05-02T07:20,122.3056,7.2073,0.7191,6.81775,0.9825,0.263447705
2011-05-02T07:50,122.3264,7.219,0.4809,6.826,0.8863,0.405457074
2011-05-02T08:20,122.3472,7.0597,0.7167,6.6865,1.0194,0.302750202
2011-05-02T08:50,122.3681,6.9187,0.8306,6.57775,1.0779,0.247312207
2011-05-02T09:20,122.3889,6.8663,0.7816,6.4935,1.5182,0.736582883
2011-05-02T09:50,122.4097,7.1533,1.0194,6.81225,1.4108,0.391446698
2011-05-02T10:20,122.4306,7.6063,0.8663,7.30125,1.4527,0.586349706
2011-05-02T10:50,122.4514,8.008,0.9889,7.66525,1.3338,0.34482418
2011-05-02T11:20,122.4722,8.4967,1.0407,8.10275,1.203,0.162298196
2011-05-02T11:50,122.4931,8.9833,0.9852,8.605,1.2338,0.248622326
2011-05-02T12:20,122.5139,9.46,1.081,8.995,0.9045,-0.17651761
2011-05-02T12:50,122.5347,9.6967,1.2523,9.22,1.1889,-0.063424767
2011-05-02T13:20,122.5556,9.9633,0.8263,9.5,1.2142,0.387837755
2011-05-02T13:50,122.5764,10.1,1.1133,9.6525,1.7091,0.595858303
2011-05-02T14:20,122.5972,10.1533,1.0929,9.665,1.3721,0.279179641
2011-05-02T14:50,122.6181,10.2333,0.8679,9.785,1.1935,0.325558981
2011-05-02T15:20,122.6389,10.33,1.2089,9.8375,1.4979,0.288987562
2011-05-02T15:50,122.6597,10.41,0.9617,9.95,1.0894,0.127703759
2011-05-02T16:20,122.6806,10.4633,0.7393,10.0125,1.1457,0.406393131
2011-05-02T16:50,122.7014,10.5667,0.962,10.1025,1.0682,0.106149125
2011-05-02T17:20,122.7222,10.6733,1.0119,10.2225,1.2056,0.193707722
2011-05-02T17:50,122.7431,10.73,0.86,10.2675,1.3994,0.539374157
2011-05-02T18:20,122.7639,10.7367,0.9746,10.28,1.8325,0.857937102
2011-05-02T18:50,122.7847,10.7067,1.156,10.245,1.5629,0.406833789
2011-05-02T19:20,122.8056,10.6533,0.9762,10.2025,1.6112,0.634955387
2011-05-02T19:50,122.8264,10.5867,1.431,10.1375,1.3508,-0.080192893
2011-05-02T20:20,122.8472,10.52,1.3445,10.0675,1.7001,0.355605206
2011-05-02T20:50,122.8681,10.4333,0.7705,9.9825,1.0805,0.30995837
2011-05-02T21:20,122.8889,10.3367,1.0707,9.8925,1.202,0.131218793
2011-05-02T21:50,122.9097,10.27,1.0402,9.8175,1.5102,0.470055501
2011-05-02T22:20,122.9306,10.2,1.3266,9.745,1.2799,-0.04670843
2011-05-02T22:50,122.9514,10.13,1.1166,9.685,1.2966,0.18001419
2011-05-02T23:20,122.9722,10.0533,1.0823,9.61,1.5969,0.514517477
2011-05-02T23:50,122.9931,9.9733,1.1401,9.5275,1.3008,0.160713287
2011-05-03T00:20,123.0139,9.8633,1.0524,9.4275,1.4584,0.406008975
2011-05-03T00:50,123.0347,9.8033,1.2809,9.37,1.6025,0.3216355
2011-05-03T01:20,123.0556,9.7533,1.075,9.3175,1.4132,0.338253158
2011-05-03T01:50,123.0764,9.74,1.2898,9.2975,1.76,0.470123015
2011-05-03T02:20,123.0972,9.71,1.0496,9.2725,1.5582,0.508654516
2011-05-03T02:50,123.1181,9.62,1.0819,9.18,1.5777,0.495829162
2011-05-03T03:20,123.1389,9.5033,1.2111,9.0775,1.9373,0.726227817
2011-05-03T03:50,123.1597,9.4633,1.4161,9.035,1.9134,0.49732366
2011-05-03T04:20,123.1806,9.42,1.1339,8.99,1.2391,0.105179799
2011-05-03T04:50,123.2014,9.3833,0.7198,8.955,1.8489,1.129060469
2011-05-03T05:20,123.2222,9.3233,1.0472,8.89,1.9411,0.893880237
2011-05-03T05:50,123.2431,9.24,1.38,8.8175,1.4089,0.028978952
2011-05-03T06:20,123.2639,9.1933,1.329,8.775,1.2397,-0.089331002
2011-05-03T06:50,123.2847,9.1033,0.8661,8.695,1.6621,0.796069255
2011-05-03T07:20,123.3056,8.99,0.6571,8.5775,0.9976,0.340502143
2011-05-03T07:50,123.3264,9.0367,0.4763,8.65,1.1689,0.692565823
2011-05-03T08:20,123.3472,8.99,0.637,8.61,0.9843,0.34730428
2011-05-03T08:50,123.3681,8.7167,1.2178,8.2835,1.4927,0.274986458
2011-05-03T09:20,123.3889,8.8433,1.2528,8.545,1.3261,0.073262328
2011-05-03T09:50,123.4097,9.02,0.6724,8.6975,0.9888,0.316314247
2011-05-03T10:20,123.4306,9.2333,1.0476,8.89,2.4159,1.368291281
2011-05-03T10:50,123.4514,9.7,1.1298,9.345,1.6915,0.561728693
2011-05-03T11:20,123.4722,10.3967,0.9912,10.0325,1.616,0.624807595
2011-05-03T11:50,123.4931,10.7467,1.2117,10.3575,1.4803,0.268553732
2011-05-03T12:20,123.5139,10.8867,0.9858,10.5025,1.4934,0.507605292
2011-05-03T12:50,123.5347,10.8633,1.0233,10.5175,1.5637,0.540410684
2011-05-03T13:20,123.5556,11.0067,1.2354,10.6525,1.4757,0.240300517
2011-05-03T13:50,123.5764,11.2467,1.0169,10.7775,1.3793,0.362396999
2011-05-03T14:20,123.5972,11.53,1.2079,11.1,1.5976,0.389700809
2011-05-03T14:50,123.6181,11.8667,1.3593,11.425,1.3587,-0.0006199
2011-05-03T15:20,123.6389,12.1467,1.2539,11.6775,1.6524,0.398516533
2011-05-03T15:50,123.6597,12.3333,1.3803,11.865,1.9574,0.577095878
2011-05-03T16:20,123.6806,12.4633,1.3855,11.9875,1.6366,0.251193334
2011-05-03T16:50,123.7014,12.5367,1.3614,12.04,1.5865,0.225155967
2011-05-03T17:20,123.7222,12.5633,1.3988,12.0825,1.4769,0.078134251
2011-05-03T17:50,123.7431,12.5733,1.5093,12.0875,1.509,-0.00026987
2011-05-03T18:20,123.7639,12.5767,1.2981,12.0825,1.3475,0.049455954
2011-05-03T18:50,123.7847,12.5767,1.4161,12.085,1.3838,-0.03237748
2011-05-03T19:20,123.8056,12.51,1.2818,12,1.6346,0.352806136
2011-05-03T19:50,123.8264,12.4,1.2691,11.895,1.6785,0.409424777
2011-05-03T20:20,123.8472,12.3133,0.7791,11.8175,1.2868,0.507675997
2011-05-03T20:50,123.8681,12.2133,1.1897,11.7125,1.3587,0.169025165
2011-05-03T21:20,123.8889,12.0467,1.426,11.55,1.4987,0.072648018
2011-05-03T21:50,123.9097,11.9067,1.1872,11.4075,1.5695,0.382289881
2011-05-03T22:20,123.9306,11.7733,1.2548,11.26,1.5185,0.263721645
2011-05-03T22:50,123.9514,11.6433,1.446,11.1525,1.6316,0.18559584
2011-05-03T23:20,123.9722,11.55,1.0144,11.055,1.3974,0.383000502
2011-05-03T23:50,123.9931,11.4767,1.0973,10.98,1.2467,0.149460489
2011-05-04T00:20,124.0139,11.41,1.0025,10.9225,1.2427,0.240162086
2011-05-04T00:50,124.0347,11.3333,1.3207,10.8375,1.2606,-0.06015056
2011-05-04T01:20,124.0556,11.2267,1.2224,10.7225,1.9701,0.747649595
2011-05-04T01:50,124.0764,11.12,0.7588,10.6275,1.2858,0.52703882
2011-05-04T02:20,124.0972,11.0367,0.7342,10.5325,1.2315,0.497309696
2011-05-04T02:50,124.1181,10.9733,1.3395,10.4775,1.7498,0.410272447
2011-05-04T03:20,124.1389,10.9267,1.6729,10.4325,1.5706,-0.102288787
2011-05-04T03:50,124.1597,10.8833,1.2234,10.3775,1.8985,0.675137592
2011-05-04T04:20,124.1806,10.8533,1.1636,10.3625,1.6256,0.46194593
2011-05-04T04:50,124.2014,10.83,0.8595,10.3275,1.2594,0.399957335
2011-05-04T05:20,124.2222,10.83,1.4369,10.315,1.6902,0.253235926
2011-05-04T05:50,124.2431,10.7933,1.5737,10.3,1.8926,0.318857944
2011-05-04T06:20,124.2639,10.7867,1.4348,10.2975,1.5882,0.153327868
2011-05-04T06:50,124.2847,10.7833,1.4484,10.28,1.5227,0.074323106
2011-05-04T07:20,124.3056,10.7467,0.9848,10.2425,1.8224,0.837586113
2011-05-04T07:50,124.3264,10.73,1.0526,10.2425,1.5136,0.461044516
2011-05-04T08:20,124.3472,10.7233,1.1723,10.2325,1.6863,0.514015333
2011-05-04T08:50,124.3681,10.7333,1.0152,10.245,1.7822,0.767068635
2011-05-04T09:20,124.3889,10.79,1.1942,10.29,1.6934,0.499234623
2011-05-04T09:50,124.4097,10.8567,0.8914,10.3825,1.4191,0.527664825
2011-05-04T10:20,124.4306,10.9233,1.7479,10.3775,1.8686,0.120735039
2011-05-04T10:50,124.4514,10.8867,1.3748,10.3725,1.2246,-0.150234633
2011-05-04T11:20,124.4722,10.8467,1.2454,10.3425,1.447,0.201597727
2011-05-04T11:50,124.4931,10.82,1.1424,10.3325,1.6949,0.552476562
2011-05-04T12:20,124.5139,10.7967,1.4284,10.3025,1.8555,0.42710464
2011-05-04T12:50,124.5347,10.8467,1.1109,10.355,1.7206,0.609665739
2011-05-04T13:20,124.5556,10.9267,1.8446,10.4275,1.5917,-0.252851156
2011-05-04T13:50,124.5764,10.91,1.3011,10.41,1.4886,0.187555672
2011-05-04T14:20,124.5972,10.8733,1.4144,10.37,2.0195,0.605126477
2011-05-04T14:50,124.6181,10.8467,1.1072,10.3425,1.7557,0.64848222
2011-05-04T15:20,124.6389,10.7967,1.072,10.2925,1.5823,0.510364999
2011-05-04T15:50,124.6597,10.74,1.6778,10.22,1.7239,0.046099463
2011-05-04T16:20,124.6806,10.65,1.4195,10.1525,1.7581,0.338602371
2011-05-04T16:50,124.7014,10.54,1.2058,10.035,1.5879,0.382133561
2011-05-04T17:20,124.7222,10.4467,1.0629,9.9275,1.2084,0.145452976
2011-05-04T17:50,124.7431,10.3833,1.3454,9.8625,1.3919,0.046458916
2011-05-04T18:20,124.7639,10.31,1.242,9.81,1.5983,0.356369269
2011-05-04T18:50,124.7847,10.2167,0.9568,9.7125,1.1718,0.214951872
2011-05-04T19:20,124.8056,10.1133,1.0384,9.6175,0.8862,-0.152150605
2011-05-04T19:50,124.8264,10.0233,0.8962,9.515,1.4165,0.520319196
2011-05-04T20:20,124.8472,9.89,0.8848,9.3925,1.1937,0.308837669
2011-05-04T20:50,124.8681,9.78,1.2568,9.2825,1.692,0.435137426
2011-05-04T21:20,124.8889,9.68,1.1884,9.17,1.6754,0.486997803
2011-05-04T21:50,124.9097,9.5533,0.9874,9.04,1.4356,0.448205355
2011-05-04T22:20,124.9306,9.42,0.795,8.91,1.4575,0.66247106
2011-05-04T22:50,124.9514,9.2767,0.9079,8.77,0.8974,-0.010537397
2011-05-04T23:20,124.9722,9.1367,1.0614,8.6375,1.4002,0.338866051
2011-05-04T23:50,124.9931,9.0267,0.7761,8.52,1.6038,0.827691399
2011-05-05T00:20,125.0139,8.8933,0.5985,8.405,1.4015,0.803032452
2011-05-05T00:50,125.0347,8.8033,0.724,8.30975,1.7288,1.004803473
2011-05-05T01:20,125.0556,8.7,0.4822,8.22025,1.2079,0.725708661
2011-05-05T01:50,125.0764,8.61,1.2119,8.1255,1.3263,0.114453185
2011-05-05T02:20,125.0972,8.5167,0.8459,8.03825,1.7129,0.866986039
2011-05-05T02:50,125.1181,8.44,1.1875,7.95125,1.0359,-0.151519675
2011-05-05T03:20,125.1389,8.3567,0.8125,7.87875,1.312,0.499507895
2011-05-05T03:50,125.1597,8.2527,0.6996,7.782,1.3191,0.619467095
2011-05-05T04:20,125.1806,8.17,0.8699,7.7045,1.029,0.15910618
2011-05-05T04:50,125.2014,8.119,1.0432,7.6425,1.1356,0.092406548
2011-05-05T05:20,125.2222,8.052,0.5687,7.5875,1.1693,0.600581875
2011-05-05T05:50,125.2431,7.939,0.5915,7.47375,1.1435,0.55198104
2011-05-05T06:20,125.2639,7.819,0.5206,7.377,0.9821,0.461502879
2011-05-05T06:50,125.2847,7.742,1.1758,7.2975,1.2681,0.092360722
2011-05-05T07:20,125.3056,7.7057,0.854,7.27025,1.0948,0.240798206
2011-05-05T07:50,125.3264,7.6603,1.1557,7.23175,1.2275,0.071832587
2011-05-05T08:20,125.3472,7.652,0.9604,7.213,1.4327,0.472227766
2011-05-05T08:50,125.3681,7.725,0.723,7.28975,1.5593,0.836283785
2011-05-05T09:20,125.3889,7.8393,0.9259,7.41425,1.226,0.300077134
2011-05-05T09:50,125.4097,7.798,0.7917,7.36425,1.4355,0.643798224
2011-05-05T10:20,125.4306,7.8913,0.8368,7.36625,1.2487,0.411933075
2011-05-05T10:50,125.4514,7.8663,0.9417,7.2915,1.4298,0.488041108
2011-05-05T11:20,125.4722,7.8053,0.9468,7.3705,1.2524,0.305606604
2011-05-05T11:50,125.4931,8.1,0.8082,7.70475,1.1385,0.330313106
2011-05-05T12:20,125.5139,8.3967,1.2113,7.944,1.4013,0.190035507
2011-05-05T12:50,125.5347,8.6467,0.8609,8.23475,1.5682,0.707277076
2011-05-05T13:20,125.5556,8.72,1.0135,8.2635,1.4217,0.408193161
2011-05-05T13:50,125.5764,9.0333,0.8454,8.5075,1.4618,0.616343741
2011-05-05T14:20,125.5972,9.0433,1.1449,8.555,1.2447,0.099821309
2011-05-05T14:50,125.6181,9.2033,0.7355,8.715,1.5999,0.864383144
2011-05-05T15:20,125.6389,9.2633,0.7237,8.7525,1.2233,0.499597133
2011-05-05T15:50,125.6597,9.32,1.1801,8.8375,1.5616,0.381502082
2011-05-05T16:20,125.6806,9.32,0.8418,8.8475,1.6755,0.833708588
2011-05-05T16:50,125.7014,9.3333,0.9456,8.86,1.5453,0.599697456
2011-05-05T17:20,125.7222,9.2833,1.2947,8.83,1.4911,0.196457689
2011-05-05T17:50,125.7431,9.23,1.148,8.7825,0.9965,-0.151587517
2011-05-05T18:20,125.7639,9.1467,1.0322,8.7,1.1552,0.122994159
2011-05-05T18:50,125.7847,9.0333,0.8314,8.58,1.6239,0.792472247
2011-05-05T19:20,125.8056,8.91,0.929,8.4605,1.2041,0.275088085
2011-05-05T19:50,125.8264,8.7667,0.8901,8.32125,1.4364,0.546303893
2011-05-05T20:20,125.8472,8.6333,0.6026,8.19375,1.1769,0.574312199
2011-05-05T20:50,125.8681,8.5067,1.1015,8.08525,1.817,0.715530102
2011-05-05T21:20,125.8889,8.3967,1.2246,7.9595,1.8569,0.632296677
2011-05-05T21:50,125.9097,8.2467,1.6419,7.82675,1.8807,0.238806668
2011-05-05T22:20,125.9306,8.1213,1.0054,7.70625,1.2516,0.246169835
2011-05-05T22:50,125.9514,8.0043,0.8258,7.58275,1.2868,0.46103217
2011-05-05T23:20,125.9722,7.8887,0.9038,7.47175,1.5039,0.600122622
2011-05-05T23:50,125.9931,7.7833,0.6345,7.363,1.0883,0.453711709
2011-05-06T00:20,126.0139,7.676,0.5711,7.253,1.1945,0.62340115
2011-05-06T00:50,126.0347,7.5883,0.8374,7.1735,0.8701,0.032643228
2011-05-06T01:20,126.0556,7.4967,0.9296,7.0645,1.5821,0.652553564
2011-05-06T01:50,126.0764,7.4053,1.3668,6.924,1.5171,0.15031548
2011-05-06T02:20,126.0972,7.361,0.9397,6.79625,1.2526,0.312948295
2011-05-06T02:50,126.1181,7.3793,0.6347,6.797,1.451,0.81622619
2011-05-06T03:20,126.1389,7.3163,0.6298,6.74,0.7159,0.086081948
2011-05-06T03:50,126.1597,7.2237,0.5883,6.64075,1.0872,0.498956745
2011-05-06T04:20,126.1806,7.1237,0.7042,6.5575,0.9237,0.219514467
2011-05-06T04:50,126.2014,7.0267,0.5311,6.4715,1.1924,0.661322398
2011-05-06T05:20,126.2222,6.9057,0.4626,6.35125,0.9705,0.507906493
2011-05-06T05:50,126.2431,6.7517,0.4505,6.18975,1.1831,0.732607576
2011-05-06T06:20,126.2639,6.5567,0.8561,5.984,1.2461,0.390016906
2011-05-06T06:50,126.2847,6.333,0.4211,5.76075,1.1506,0.72943267
2011-05-06T07:20,126.3056,6.1927,0.5257,5.645,1.2114,0.685643182
2011-05-06T07:50,126.3264,5.9773,0.9541,5.60275,1.4361,0.482028971
2011-05-06T08:20,126.3472,5.781,0.5058,5.463,1.2263,0.720502707
2011-05-06T08:50,126.3681,5.6237,0.5202,5.31275,1.4594,0.939201527
2011-05-06T09:20,126.3889,5.728,0.5355,5.453,1.1343,0.598793694
2011-05-06T09:50,126.4097,6.0287,0.7553,5.75925,1.6617,0.906443983
2011-05-06T10:20,126.4306,6.286,1.1806,6.01975,1.4395,0.258953025
2011-05-06T10:50,126.4514,6.6853,1.2578,6.346,1.4835,0.225694013
2011-05-06T11:20,126.4722,7.152,1.137,6.8055,1.5812,0.444286602
2011-05-06T11:50,126.4931,7.7897,1.3172,7.3765,1.9128,0.595613227
2011-05-06T12:20,126.5139,8.5133,1.2642,8.07275,2.0037,0.739568777
2011-05-06T12:50,126.5347,8.9667,1.1101,8.51,1.2728,0.162695026
2011-05-06T13:20,126.5556,9.1833,0.7357,8.7375,1.2604,0.524685727
2011-05-06T13:50,126.5764,9.3133,0.9001,8.8325,1.5343,0.63417186
2011-05-06T14:20,126.5972,9.5667,1.3335,9.05,1.7556,0.422043217
2011-05-06T14:50,126.6181,10.0133,1.5003,9.5425,1.5912,0.090857787
2011-05-06T15:20,126.6389,10.3267,1.2516,9.8725,1.73,0.478350023
2011-05-06T15:50,126.6597,10.4333,1.1538,10.01,1.1072,-0.046570006
2011-05-06T16:20,126.6806,10.5233,1.2399,10.1325,1.5253,0.285341297
2011-05-06T16:50,126.7014,10.6367,1.3919,10.2625,1.6079,0.216037835
2011-05-06T17:20,126.7222,10.6733,1.2796,10.2725,1.6695,0.389913963
2011-05-06T17:50,126.7431,10.73,0.7473,10.35,1.2609,0.513551658
2011-05-06T18:20,126.7639,10.7667,0.9724,10.3625,1.4594,0.487034414
2011-05-06T18:50,126.7847,10.7433,1.0759,10.3375,1.7297,0.653762649
2011-05-06T19:20,126.8056,10.6567,1.2905,10.2525,1.402,0.111450799
2011-05-06T19:50,126.8264,10.5333,1.1498,10.14,1.2365,0.086699694
2011-05-06T20:20,126.8472,10.41,1.2646,10.005,1.1495,-0.115076737
2011-05-06T20:50,126.8681,10.27,0.886,9.87,1.3319,0.4458097
2011-05-06T21:20,126.8889,10.1,0.9634,9.7125,1.1536,0.19020292
2011-05-06T21:50,126.9097,9.9467,0.9208,9.5525,1.2683,0.347474047
2011-05-06T22:20,126.9306,9.8,1.323,9.4125,1.0126,-0.310404535
2011-05-06T22:50,126.9514,9.6833,1.028,9.295,1.7645,0.736433284
2011-05-06T23:20,126.9722,9.5567,1.782,9.165,1.8032,0.021136974
2011-05-06T23:50,126.9931,9.4167,1.7937,9.0275,1.9544,0.160756506
2011-05-07T00:20,127.0139,9.2967,0.9481,8.915,1.9064,0.958285758
2011-05-07T00:50,127.0347,9.1567,0.925,8.7675,1.2664,0.341455478
2011-05-07T01:20,127.0556,9.05,1.4258,8.66,1.7009,0.275139587